Date_Time,Julian_Date,Latitude,Longitude,Instrument_Depth,U,V,Speed,Direction
(yyyy-mm-dd hh:mn:ss UTC),(JD),(+ deg. North),(+ deg. East),(m),(cm/s),(cm/s),(cm/s),(deg True)
1993-03-22 21:30:00 UTC,2449069.395833,28.5367,-95.3933,0010,-11.05,-2.35,11.2971,257.9938
1993-03-22 22:00:00 UTC,2449069.416667,28.5367,-95.3933,0010,-12.19,-3.04,12.5633,255.9969
1993-03-22 22:30:00 UTC,2449069.437500,28.5367,-95.3933,0010,-13.16,-3.28,13.5626,256.0048
1993-03-22 23:00:00 UTC,2449069.458333,28.5367,-95.3933,0010,-18.05,-6.22,19.0916,250.9861
1993-03-22 23:30:00 UTC,2449069.479167,28.5367,-95.3933,0010,-23.28,-12.91,26.6200,240.9893
1993-03-23 00:00:00 UTC,2449069.500000,28.5367,-95.3933,0010,-24.76,-14.88,28.8872,238.9954
1993-03-23 00:30:00 UTC,2449069.520833,28.5367,-95.3933,0010,-27.87,-8.52,29.1432,253.0013
1993-03-23 01:00:00 UTC,2449069.541667,28.5367,-95.3933,0010,-26.69,-7.15,27.6311,255.0031
1993-03-23 01:30:00 UTC,2449069.562500,28.5367,-95.3933,0010,-26.28,-8.54,27.6328,251.9978
1993-03-23 02:00:00 UTC,2449069.583333,28.5367,-95.3933,0010,-28.18,-11.38,30.3911,248.0096
1993-03-23 02:30:00 UTC,2449069.604167,28.5367,-95.3933,0010,-27.31,-12.16,29.8948,245.9986
1993-03-23 03:00:00 UTC,2449069.625000,28.5367,-95.3933,0010,-28.61,-10.98,30.6446,249.0041
1993-03-23 03:30:00 UTC,2449069.645833,28.5367,-95.3933,0010,-26.55,-10.72,28.6325,248.0128
1993-03-23 04:00:00 UTC,2449069.666667,28.5367,-95.3933,0010,-25.56,-9.81,27.3779,249.0031
1993-03-23 04:30:00 UTC,2449069.687500,28.5367,-95.3933,0010,-24.85,-9.54,26.6183,248.9980
1993-03-23 05:00:00 UTC,2449069.708333,28.5367,-95.3933,0010,-24.02,-7.34,25.1164,253.0080
1993-03-23 05:30:00 UTC,2449069.729167,28.5367,-95.3933,0010,-22.93,-4.46,23.3597,258.9931
1993-03-23 06:00:00 UTC,2449069.750000,28.5367,-95.3933,0010,-21.76,-3.84,22.0962,259.9920
1993-03-23 06:30:00 UTC,2449069.770833,28.5367,-95.3933,0010,-19.20,-2.36,19.3445,262.9926
1993-03-23 07:00:00 UTC,2449069.791667,28.5367,-95.3933,0010,-17.26,-3.35,17.5821,259.0160
1993-03-23 07:30:00 UTC,2449069.812500,28.5367,-95.3933,0010,-15.86,-4.85,16.5850,252.9963
1993-03-23 08:00:00 UTC,2449069.833333,28.5367,-95.3933,0010,-14.72,-5.07,15.5687,250.9948
1993-03-23 08:30:00 UTC,2449069.854167,28.5367,-95.3933,0010,-12.62,-5.62,13.8148,245.9954
1993-03-23 09:00:00 UTC,2449069.875000,28.5367,-95.3933,0010,-9.90,-6.43,11.8049,236.9965
1993-03-23 09:30:00 UTC,2449069.895833,28.5367,-95.3933,0010,-7.58,-9.70,12.3104,218.0056
1993-03-23 10:00:00 UTC,2449069.916667,28.5367,-95.3933,0010,-4.02,-9.48,10.2971,202.9794
1993-03-23 10:30:00 UTC,2449069.937500,28.5367,-95.3933,0010,-3.87,-10.08,10.7974,201.0032
1993-03-23 11:00:00 UTC,2449069.958333,28.5367,-95.3933,0010,-13.49,-8.76,16.0847,237.0015
1993-03-23 11:30:00 UTC,2449069.979167,28.5367,-95.3933,0010,-19.11,-6.21,20.0937,251.9979
1993-03-23 12:00:00 UTC,2449070.000000,28.5367,-95.3933,0010,-20.19,-6.95,21.3527,251.0050
1993-03-23 12:30:00 UTC,2449070.020833,28.5367,-95.3933,0010,-21.57,-9.60,23.6098,246.0079
1993-03-23 13:00:00 UTC,2449070.041667,28.5367,-95.3933,0010,-27.43,-10.53,29.3817,248.9989
1993-03-23 13:30:00 UTC,2449070.062500,28.5367,-95.3933,0010,-32.96,-10.71,34.6564,251.9990
1993-03-23 14:00:00 UTC,2449070.083333,28.5367,-95.3933,0010,-26.58,-14.73,30.3886,241.0058
1993-03-23 14:30:00 UTC,2449070.104167,28.5367,-95.3933,0010,-26.05,-15.65,30.3896,239.0039
1993-03-23 15:00:00 UTC,2449070.125000,28.5367,-95.3933,0010,-33.71,-17.92,38.1771,242.0052
1993-03-23 15:30:00 UTC,2449070.145833,28.5367,-95.3933,0010,-33.16,-19.92,38.6832,239.0058
1993-03-23 16:00:00 UTC,2449070.166667,28.5367,-95.3933,0010,-33.33,-23.34,40.6896,234.9976
1993-03-23 16:30:00 UTC,2449070.187500,28.5367,-95.3933,0010,-31.82,-25.76,40.9401,231.0080
1993-03-23 17:00:00 UTC,2449070.208333,28.5367,-95.3933,0010,-30.31,-28.27,41.4474,226.9945
1993-03-23 17:30:00 UTC,2449070.229167,28.5367,-95.3933,0010,-27.22,-34.84,44.2126,218.0000
1993-03-23 18:00:00 UTC,2449070.250000,28.5367,-95.3933,0010,-25.50,-36.42,44.4597,214.9984
1993-03-23 18:30:00 UTC,2449070.270833,28.5367,-95.3933,0010,-22.48,-38.94,44.9630,209.9978
1993-03-23 19:00:00 UTC,2449070.291667,28.5367,-95.3933,0010,-20.83,-34.66,40.4377,211.0051
1993-03-23 19:30:00 UTC,2449070.312500,28.5367,-95.3933,0010,-19.67,-29.16,35.1741,214.0018
1993-03-23 20:00:00 UTC,2449070.333333,28.5367,-95.3933,0010,-20.10,-25.73,32.6503,217.9966
1993-03-23 20:30:00 UTC,2449070.354167,28.5367,-95.3933,0010,-18.71,-23.95,30.3919,217.9973
1993-03-23 21:00:00 UTC,2449070.375000,28.5367,-95.3933,0010,-18.50,-19.84,27.1270,222.9983
1993-03-23 21:30:00 UTC,2449070.395833,28.5367,-95.3933,0010,-19.82,-16.63,25.8726,230.0016
1993-03-23 22:00:00 UTC,2449070.416667,28.5367,-95.3933,0010,-19.54,-19.54,27.6337,225.0000
1993-03-23 22:30:00 UTC,2449070.437500,28.5367,-95.3933,0010,-19.77,-22.75,30.1399,220.9910
1993-03-23 23:00:00 UTC,2449070.458333,28.5367,-95.3933,0010,-20.75,-29.63,36.1732,215.0037
1993-03-23 23:30:00 UTC,2449070.479167,28.5367,-95.3933,0010,-30.19,-35.98,46.9680,219.9993
1993-03-24 00:00:00 UTC,2449070.500000,28.5367,-95.3933,0010,-35.59,-36.86,51.2378,223.9958
1993-03-24 00:30:00 UTC,2449070.520833,28.5367,-95.3933,0010,-40.41,-37.69,55.2585,226.9947
1993-03-24 01:00:00 UTC,2449070.541667,28.5367,-95.3933,0010,-39.61,-41.02,57.0227,223.9982
1993-03-24 01:30:00 UTC,2449070.562500,28.5367,-95.3933,0010,-37.34,-40.04,54.7492,223.0016
1993-03-24 02:00:00 UTC,2449070.583333,28.5367,-95.3933,0010,-30.08,-39.92,49.9841,216.9983
1993-03-24 02:30:00 UTC,2449070.604167,28.5367,-95.3933,0010,-30.77,-39.38,49.9758,218.0027
1993-03-24 03:00:00 UTC,2449070.625000,28.5367,-95.3933,0010,-35.12,-37.66,51.4946,223.0012
1993-03-24 03:30:00 UTC,2449070.645833,28.5367,-95.3933,0010,-32.28,-33.43,46.4711,223.9974
1993-03-24 04:00:00 UTC,2449070.666667,28.5367,-95.3933,0010,-33.62,-31.35,45.9688,227.0011
1993-03-24 04:30:00 UTC,2449070.687500,28.5367,-95.3933,0010,-31.44,-31.44,44.4629,225.0000
1993-03-24 05:00:00 UTC,2449070.708333,28.5367,-95.3933,0010,-30.84,-24.98,39.6876,230.9930
1993-03-24 05:30:00 UTC,2449070.729167,28.5367,-95.3933,0010,-30.25,-21.18,36.9277,235.0016
1993-03-24 06:00:00 UTC,2449070.750000,28.5367,-95.3933,0010,-33.80,-20.31,39.4327,238.9989
1993-03-24 06:30:00 UTC,2449070.770833,28.5367,-95.3933,0010,-37.24,-22.38,43.4475,238.9955
1993-03-24 07:00:00 UTC,2449070.791667,28.5367,-95.3933,0010,-39.32,-21.80,44.9589,240.9949
1993-03-24 07:30:00 UTC,2449070.812500,28.5367,-95.3933,0010,-39.24,-17.47,42.9532,246.0009
1993-03-24 08:00:00 UTC,2449070.833333,28.5367,-95.3933,0010,-41.32,-14.23,43.7017,250.9970
1993-03-24 08:30:00 UTC,2449070.854167,28.5367,-95.3933,0010,-38.71,-13.33,40.9408,250.9986
1993-03-24 09:00:00 UTC,2449070.875000,28.5367,-95.3933,0010,-35.14,-12.10,37.1649,250.9995
1993-03-24 09:30:00 UTC,2449070.895833,28.5367,-95.3933,0010,-31.19,-11.97,33.4080,249.0044
1993-03-24 10:00:00 UTC,2449070.916667,28.5367,-95.3933,0010,-28.50,-9.81,30.1411,251.0060
1993-03-24 10:30:00 UTC,2449070.937500,28.5367,-95.3933,0010,-25.93,-11.54,28.3820,246.0088
1993-03-24 11:00:00 UTC,2449070.958333,28.5367,-95.3933,0010,-23.48,-11.45,26.1230,244.0039
1993-03-24 11:30:00 UTC,2449070.979167,28.5367,-95.3933,0010,-22.40,-11.91,25.3694,242.0006
1993-03-24 12:00:00 UTC,2449071.000000,28.5367,-95.3933,0010,-21.45,-10.46,23.8645,244.0040
1993-03-24 12:30:00 UTC,2449071.020833,28.5367,-95.3933,0010,-20.72,-9.66,22.8612,245.0043
1993-03-24 13:00:00 UTC,2449071.041667,28.5367,-95.3933,0010,-19.12,-8.92,21.0984,244.9897
1993-03-24 13:30:00 UTC,2449071.062500,28.5367,-95.3933,0010,-20.55,-10.02,22.8627,244.0066
1993-03-24 14:00:00 UTC,2449071.083333,28.5367,-95.3933,0010,-20.87,-11.57,23.8626,240.9967
1993-03-24 14:30:00 UTC,2449071.104167,28.5367,-95.3933,0010,-21.52,-11.44,24.3718,242.0050
1993-03-24 15:00:00 UTC,2449071.125000,28.5367,-95.3933,0010,-23.41,-10.42,25.6243,246.0057
1993-03-24 15:30:00 UTC,2449071.145833,28.5367,-95.3933,0010,-21.68,-10.57,24.1194,244.0086
1993-03-24 16:00:00 UTC,2449071.166667,28.5367,-95.3933,0010,-17.52,-9.31,19.8400,242.0142
1993-03-24 16:30:00 UTC,2449071.187500,28.5367,-95.3933,0010,-18.43,-8.60,20.3378,244.9848
1993-03-24 17:00:00 UTC,2449071.208333,28.5367,-95.3933,0010,-21.02,-6.83,22.1018,251.9995
1993-03-24 17:30:00 UTC,2449071.229167,28.5367,-95.3933,0010,-18.02,-5.51,18.8436,252.9979
1993-03-24 18:00:00 UTC,2449071.250000,28.5367,-95.3933,0010,-14.17,-4.33,14.8168,253.0081
1993-03-24 18:30:00 UTC,2449071.270833,28.5367,-95.3933,0010,-13.21,-4.04,13.8140,252.9949
1993-03-24 19:00:00 UTC,2449071.291667,28.5367,-95.3933,0010,-14.92,-2.10,15.0671,261.9882
1993-03-24 19:30:00 UTC,2449071.312500,28.5367,-95.3933,0010,-10.96,-2.73,11.2949,256.0130
1993-03-24 20:00:00 UTC,2449071.333333,28.5367,-95.3933,0010,-8.55,-2.94,9.0414,251.0240
1993-03-24 20:30:00 UTC,2449071.354167,28.5367,-95.3933,0010,-8.29,-2.07,8.5445,255.9800
1993-03-24 21:00:00 UTC,2449071.375000,28.5367,-95.3933,0010,-7.79,-0.27,7.7947,268.0150
1993-03-24 21:30:00 UTC,2449071.395833,28.5367,-95.3933,0010,-6.48,-0.80,6.5292,262.9621
1993-03-24 22:00:00 UTC,2449071.416667,28.5367,-95.3933,0010,-6.01,0.53,6.0333,275.0397
1993-03-24 22:30:00 UTC,2449071.437500,28.5367,-95.3933,0010,-9.90,-1.75,10.0535,259.9755
1993-03-24 23:00:00 UTC,2449071.458333,28.5367,-95.3933,0010,-17.33,-5.97,18.3295,250.9917
1993-03-24 23:30:00 UTC,2449071.479167,28.5367,-95.3933,0010,-21.00,-10.24,23.3636,244.0053
1993-03-25 00:00:00 UTC,2449071.500000,28.5367,-95.3933,0010,-22.60,-13.58,26.3662,238.9990
1993-03-25 00:30:00 UTC,2449071.520833,28.5367,-95.3933,0010,-22.15,-16.09,27.3772,234.0049
1993-03-25 01:00:00 UTC,2449071.541667,28.5367,-95.3933,0010,-22.56,-16.39,27.8852,234.0013
1993-03-25 01:30:00 UTC,2449071.562500,28.5367,-95.3933,0010,-21.77,-17.01,27.6274,231.9977
1993-03-25 02:00:00 UTC,2449071.583333,28.5367,-95.3933,0010,-19.78,-17.81,26.6166,228.0000
1993-03-25 02:30:00 UTC,2449071.604167,28.5367,-95.3933,0010,-18.32,-18.97,26.3720,224.0014
1993-03-25 03:00:00 UTC,2449071.625000,28.5367,-95.3933,0010,-18.62,-21.42,28.3817,220.9998
1993-03-25 03:30:00 UTC,2449071.645833,28.5367,-95.3933,0010,-20.94,-21.68,30.1414,224.0053
1993-03-25 04:00:00 UTC,2449071.666667,28.5367,-95.3933,0010,-21.46,-22.22,30.8911,224.0032
1993-03-25 04:30:00 UTC,2449071.687500,28.5367,-95.3933,0010,-24.45,-22.01,32.8975,228.0063
1993-03-25 05:00:00 UTC,2449071.708333,28.5367,-95.3933,0010,-26.55,-21.50,34.1636,230.9997
1993-03-25 05:30:00 UTC,2449071.729167,28.5367,-95.3933,0010,-26.69,-24.03,35.9137,228.0021
1993-03-25 06:00:00 UTC,2449071.750000,28.5367,-95.3933,0010,-25.13,-26.02,36.1740,224.0032
1993-03-25 06:30:00 UTC,2449071.770833,28.5367,-95.3933,0010,-22.41,-25.78,34.1587,220.9997
1993-03-25 07:00:00 UTC,2449071.791667,28.5367,-95.3933,0010,-21.48,-25.59,33.4102,220.0098
1993-03-25 07:30:00 UTC,2449071.812500,28.5367,-95.3933,0010,-19.89,-19.89,28.1287,225.0000
1993-03-25 08:00:00 UTC,2449071.833333,28.5367,-95.3933,0010,-18.92,-17.64,25.8677,227.0052
1993-03-25 08:30:00 UTC,2449071.854167,28.5367,-95.3933,0010,-17.82,-16.62,24.3675,226.9956
1993-03-25 09:00:00 UTC,2449071.875000,28.5367,-95.3933,0010,-14.37,-12.94,19.3375,227.9974
1993-03-25 09:30:00 UTC,2449071.895833,28.5367,-95.3933,0010,-4.19,-4.34,6.0326,223.9926
1993-03-25 10:00:00 UTC,2449071.916667,28.5367,-95.3933,0010,0.11,0.50,0.5120,12.4074
1993-03-25 10:30:00 UTC,2449071.937500,28.5367,-95.3933,0010,0.17,0.48,0.5092,19.5024
1993-03-25 11:00:00 UTC,2449071.958333,28.5367,-95.3933,0010,1.40,1.45,2.0156,43.9949
1993-03-25 11:30:00 UTC,2449071.979167,28.5367,-95.3933,0010,3.52,1.95,4.0240,61.0145
1993-03-25 12:00:00 UTC,2449072.000000,28.5367,-95.3933,0010,4.56,1.39,4.7671,73.0475
1993-03-25 12:30:00 UTC,2449072.020833,28.5367,-95.3933,0010,5.01,2.34,5.5295,64.9643
1993-03-25 13:00:00 UTC,2449072.041667,28.5367,-95.3933,0010,5.69,2.65,6.2768,65.0272
1993-03-25 13:30:00 UTC,2449072.062500,28.5367,-95.3933,0010,5.77,3.07,6.5359,61.9842
1993-03-25 14:00:00 UTC,2449072.083333,28.5367,-95.3933,0010,7.37,2.54,7.7954,70.9840
1993-03-25 14:30:00 UTC,2449072.104167,28.5367,-95.3933,0010,8.02,0.56,8.0395,86.0058
1993-03-25 15:00:00 UTC,2449072.125000,28.5367,-95.3933,0010,8.04,0.14,8.0412,89.0024
1993-03-25 15:30:00 UTC,2449072.145833,28.5367,-95.3933,0010,8.76,-0.77,8.7938,95.0234
1993-03-25 16:00:00 UTC,2449072.166667,28.5367,-95.3933,0010,9.79,-0.34,9.7959,91.9890
1993-03-25 16:30:00 UTC,2449072.187500,28.5367,-95.3933,0010,10.29,-0.36,10.2963,92.0037
1993-03-25 17:00:00 UTC,2449072.208333,28.5367,-95.3933,0010,11.29,0.39,11.2967,88.0216
1993-03-25 17:30:00 UTC,2449072.229167,28.5367,-95.3933,0010,10.88,1.92,11.0481,79.9920
1993-03-25 18:00:00 UTC,2449072.250000,28.5367,-95.3933,0010,10.85,2.11,11.0533,78.9950
1993-03-25 18:30:00 UTC,2449072.270833,28.5367,-95.3933,0010,11.63,2.05,11.8093,80.0033
1993-03-25 19:00:00 UTC,2449072.291667,28.5367,-95.3933,0010,11.63,2.05,11.8093,80.0033
1993-03-25 19:30:00 UTC,2449072.312500,28.5367,-95.3933,0010,11.63,2.05,11.8093,80.0033
1993-03-25 20:00:00 UTC,2449072.333333,28.5367,-95.3933,0010,10.81,2.30,11.0520,77.9885
1993-03-25 20:30:00 UTC,2449072.354167,28.5367,-95.3933,0010,10.32,3.96,11.0537,69.0071
1993-03-25 21:00:00 UTC,2449072.375000,28.5367,-95.3933,0010,10.01,4.67,11.0458,64.9894
1993-03-25 21:30:00 UTC,2449072.395833,28.5367,-95.3933,0010,9.32,4.95,10.5530,62.0265
1993-03-25 22:00:00 UTC,2449072.416667,28.5367,-95.3933,0010,9.79,4.56,10.7999,65.0248
1993-03-25 22:30:00 UTC,2449072.437500,28.5367,-95.3933,0010,9.41,4.19,10.3007,65.9980
1993-03-25 23:00:00 UTC,2449072.458333,28.5367,-95.3933,0010,9.09,4.84,10.2982,61.9668
1993-03-25 23:30:00 UTC,2449072.479167,28.5367,-95.3933,0010,8.57,4.75,9.7983,61.0022
1993-03-26 00:00:00 UTC,2449072.500000,28.5367,-95.3933,0010,6.68,4.01,7.7912,59.0236
1993-03-26 00:30:00 UTC,2449072.520833,28.5367,-95.3933,0010,6.19,2.76,6.7774,65.9688
1993-03-26 01:00:00 UTC,2449072.541667,28.5367,-95.3933,0010,6.18,1.09,6.2754,79.9973
1993-03-26 01:30:00 UTC,2449072.562500,28.5367,-95.3933,0010,5.96,-0.94,6.0337,98.9627
1993-03-26 02:00:00 UTC,2449072.583333,28.5367,-95.3933,0010,5.55,-1.59,5.7733,105.9863
1993-03-26 02:30:00 UTC,2449072.604167,28.5367,-95.3933,0010,4.88,-1.22,5.0302,104.0362
1993-03-26 03:00:00 UTC,2449072.625000,28.5367,-95.3933,0010,4.29,-2.09,4.7720,115.9744
1993-03-26 03:30:00 UTC,2449072.645833,28.5367,-95.3933,0010,4.21,-2.24,4.7688,118.0159
1993-03-26 04:00:00 UTC,2449072.666667,28.5367,-95.3933,0010,2.92,-1.97,3.5224,124.0059
1993-03-26 04:30:00 UTC,2449072.687500,28.5367,-95.3933,0010,3.13,-0.96,3.2739,107.0513
1993-03-26 05:00:00 UTC,2449072.708333,28.5367,-95.3933,0010,3.26,-0.28,3.2720,94.9091
1993-03-26 05:30:00 UTC,2449072.729167,28.5367,-95.3933,0010,2.24,0.28,2.2574,82.8750
1993-03-26 06:00:00 UTC,2449072.750000,28.5367,-95.3933,0010,1.74,0.24,1.7565,82.1467
1993-03-26 06:30:00 UTC,2449072.770833,28.5367,-95.3933,0010,2.37,1.85,3.0066,52.0247
1993-03-26 07:00:00 UTC,2449072.791667,28.5367,-95.3933,0010,2.09,2.17,3.0128,43.9241
1993-03-26 07:30:00 UTC,2449072.812500,28.5367,-95.3933,0010,1.53,3.44,3.7649,23.9779
1993-03-26 08:00:00 UTC,2449072.833333,28.5367,-95.3933,0010,2.40,4.70,5.2773,27.0506
1993-03-26 08:30:00 UTC,2449072.854167,28.5367,-95.3933,0010,2.43,6.33,6.7804,21.0011
1993-03-26 09:00:00 UTC,2449072.875000,28.5367,-95.3933,0010,4.21,6.24,7.5274,34.0067
1993-03-26 09:30:00 UTC,2449072.895833,28.5367,-95.3933,0010,5.69,5.69,8.0469,45.0000
1993-03-26 10:00:00 UTC,2449072.916667,28.5367,-95.3933,0010,5.54,4.33,7.0314,51.9892
1993-03-26 10:30:00 UTC,2449072.937500,28.5367,-95.3933,0010,5.51,5.51,7.7923,45.0000
1993-03-26 11:00:00 UTC,2449072.958333,28.5367,-95.3933,0010,5.93,6.14,8.5361,44.0032
1993-03-26 11:30:00 UTC,2449072.979167,28.5367,-95.3933,0010,5.93,6.14,8.5361,44.0032
1993-03-26 12:00:00 UTC,2449073.000000,28.5367,-95.3933,0010,5.93,6.14,8.5361,44.0032
1993-03-26 12:30:00 UTC,2449073.020833,28.5367,-95.3933,0010,6.43,5.99,8.7878,47.0289
1993-03-26 13:00:00 UTC,2449073.041667,28.5367,-95.3933,0010,7.17,6.68,9.7996,47.0262
1993-03-26 13:30:00 UTC,2449073.062500,28.5367,-95.3933,0010,7.15,7.41,10.2971,43.9770
1993-03-26 14:00:00 UTC,2449073.083333,28.5367,-95.3933,0010,7.10,8.46,11.0445,40.0048
1993-03-26 14:30:00 UTC,2449073.104167,28.5367,-95.3933,0010,6.65,8.82,11.0460,37.0151
1993-03-26 15:00:00 UTC,2449073.125000,28.5367,-95.3933,0010,7.09,8.15,10.8023,41.0213
1993-03-26 15:30:00 UTC,2449073.145833,28.5367,-95.3933,0010,8.81,8.22,12.0493,46.9842
1993-03-26 16:00:00 UTC,2449073.166667,28.5367,-95.3933,0010,10.57,7.68,13.0655,53.9984
1993-03-26 16:30:00 UTC,2449073.187500,28.5367,-95.3933,0010,10.86,6.79,12.8080,57.9851
1993-03-26 17:00:00 UTC,2449073.208333,28.5367,-95.3933,0010,12.62,5.62,13.8148,65.9954
1993-03-26 17:30:00 UTC,2449073.229167,28.5367,-95.3933,0010,13.54,6.61,15.0673,63.9791
1993-03-26 18:00:00 UTC,2449073.250000,28.5367,-95.3933,0010,12.98,6.05,14.3207,65.0097
1993-03-26 18:30:00 UTC,2449073.270833,28.5367,-95.3933,0010,13.40,7.43,15.3220,60.9926
1993-03-26 19:00:00 UTC,2449073.291667,28.5367,-95.3933,0010,12.39,9.00,15.3138,54.0056
1993-03-26 19:30:00 UTC,2449073.312500,28.5367,-95.3933,0010,11.31,7.92,13.8073,54.9978
1993-03-26 20:00:00 UTC,2449073.333333,28.5367,-95.3933,0010,11.08,6.92,13.0634,58.0132
1993-03-26 20:30:00 UTC,2449073.354167,28.5367,-95.3933,0010,11.71,7.32,13.8097,57.9902
1993-03-26 21:00:00 UTC,2449073.375000,28.5367,-95.3933,0010,11.86,6.57,13.5582,61.0152
1993-03-26 21:30:00 UTC,2449073.395833,28.5367,-95.3933,0010,11.97,6.37,13.5594,61.9797
1993-03-26 22:00:00 UTC,2449073.416667,28.5367,-95.3933,0010,12.64,6.72,14.3153,62.0028
1993-03-26 22:30:00 UTC,2449073.437500,28.5367,-95.3933,0010,12.41,6.05,13.8062,64.0103
1993-03-26 23:00:00 UTC,2449073.458333,28.5367,-95.3933,0010,11.70,5.21,12.8076,65.9966
1993-03-26 23:30:00 UTC,2449073.479167,28.5367,-95.3933,0010,11.01,4.90,12.0511,66.0085
1993-03-27 00:00:00 UTC,2449073.500000,28.5367,-95.3933,0010,9.95,2.67,10.3020,74.9790
1993-03-27 00:30:00 UTC,2449073.520833,28.5367,-95.3933,0010,9.73,1.19,9.8025,83.0272
1993-03-27 01:00:00 UTC,2449073.541667,28.5367,-95.3933,0010,10.04,-0.35,10.0461,91.9966
1993-03-27 01:30:00 UTC,2449073.562500,28.5367,-95.3933,0010,11.24,-1.18,11.3018,95.9931
1993-03-27 02:00:00 UTC,2449073.583333,28.5367,-95.3933,0010,11.01,-2.54,11.2992,102.9908
1993-03-27 02:30:00 UTC,2449073.604167,28.5367,-95.3933,0010,11.17,-3.84,11.8116,108.9718
1993-03-27 03:00:00 UTC,2449073.625000,28.5367,-95.3933,0010,9.93,-4.84,11.0467,115.9851
1993-03-27 03:30:00 UTC,2449073.645833,28.5367,-95.3933,0010,9.26,-4.52,10.3043,116.0180
1993-03-27 04:00:00 UTC,2449073.666667,28.5367,-95.3933,0010,8.78,-3.73,9.5395,113.0172
1993-03-27 04:30:00 UTC,2449073.687500,28.5367,-95.3933,0010,8.57,-4.18,9.5351,116.0007
1993-03-27 05:00:00 UTC,2449073.708333,28.5367,-95.3933,0010,6.63,-5.77,8.7892,131.0326
1993-03-27 05:30:00 UTC,2449073.729167,28.5367,-95.3933,0010,6.62,-4.99,8.2900,127.0081
1993-03-27 06:00:00 UTC,2449073.750000,28.5367,-95.3933,0010,7.23,-3.52,8.0413,115.9596
1993-03-27 06:30:00 UTC,2449073.770833,28.5367,-95.3933,0010,6.93,-2.94,7.5278,112.9887
1993-03-27 07:00:00 UTC,2449073.791667,28.5367,-95.3933,0010,6.01,-2.55,6.5286,112.9912
1993-03-27 07:30:00 UTC,2449073.812500,28.5367,-95.3933,0010,4.13,-1.84,4.5213,114.0140
1993-03-27 08:00:00 UTC,2449073.833333,28.5367,-95.3933,0010,2.75,-1.22,3.0085,113.9238
1993-03-27 08:30:00 UTC,2449073.854167,28.5367,-95.3933,0010,2.40,-0.73,2.5086,106.9180
1993-03-27 09:00:00 UTC,2449073.875000,28.5367,-95.3933,0010,2.41,1.34,2.7575,60.9252
1993-03-27 09:30:00 UTC,2449073.895833,28.5367,-95.3933,0010,3.49,3.62,5.0284,43.9525
1993-03-27 10:00:00 UTC,2449073.916667,28.5367,-95.3933,0010,5.88,5.48,8.0377,47.0166
1993-03-27 10:30:00 UTC,2449073.937500,28.5367,-95.3933,0010,5.48,5.88,8.0377,42.9834
1993-03-27 11:00:00 UTC,2449073.958333,28.5367,-95.3933,0010,5.33,6.35,8.2904,40.0091
1993-03-27 11:30:00 UTC,2449073.979167,28.5367,-95.3933,0010,3.47,7.80,8.5370,23.9829
1993-03-27 12:00:00 UTC,2449074.000000,28.5367,-95.3933,0010,1.34,12.74,12.8103,6.0043
1993-03-27 12:30:00 UTC,2449074.020833,28.5367,-95.3933,0010,3.26,20.59,20.8465,8.9969
1993-03-27 13:00:00 UTC,2449074.041667,28.5367,-95.3933,0010,4.33,20.39,20.8447,11.9892
1993-03-27 13:30:00 UTC,2449074.062500,28.5367,-95.3933,0010,3.60,16.95,17.3281,11.9908
1993-03-27 14:00:00 UTC,2449074.083333,28.5367,-95.3933,0010,4.78,16.66,17.3322,16.0090
1993-03-27 14:30:00 UTC,2449074.104167,28.5367,-95.3933,0010,5.20,12.25,13.3080,23.0007
1993-03-27 15:00:00 UTC,2449074.125000,28.5367,-95.3933,0010,6.50,8.31,10.5502,38.0322
1993-03-27 15:30:00 UTC,2449074.145833,28.5367,-95.3933,0010,6.34,6.79,9.2898,43.0371
1993-03-27 16:00:00 UTC,2449074.166667,28.5367,-95.3933,0010,6.79,4.75,8.2865,55.0250
1993-03-27 16:30:00 UTC,2449074.187500,28.5367,-95.3933,0010,3.26,8.96,9.5346,19.9934
1993-03-27 17:00:00 UTC,2449074.208333,28.5367,-95.3933,0010,4.50,11.73,12.5636,20.9884
1993-03-27 17:30:00 UTC,2449074.229167,28.5367,-95.3933,0010,5.54,10.43,11.8100,27.9755
1993-03-27 18:00:00 UTC,2449074.250000,28.5367,-95.3933,0010,5.93,6.14,8.5361,44.0032
1993-03-27 18:30:00 UTC,2449074.270833,28.5367,-95.3933,0010,6.64,5.37,8.5397,51.0363
1993-03-27 19:00:00 UTC,2449074.291667,28.5367,-95.3933,0010,6.81,7.05,9.8020,44.0080
1993-03-27 19:30:00 UTC,2449074.312500,28.5367,-95.3933,0010,8.33,6.05,10.2952,54.0094
1993-03-27 20:00:00 UTC,2449074.333333,28.5367,-95.3933,0010,10.21,5.43,11.5641,61.9945
1993-03-27 20:30:00 UTC,2449074.354167,28.5367,-95.3933,0010,9.93,4.84,11.0467,64.0148
1993-03-27 21:00:00 UTC,2449074.375000,28.5367,-95.3933,0010,9.66,5.36,11.0474,60.9756
1993-03-27 21:30:00 UTC,2449074.395833,28.5367,-95.3933,0010,8.78,7.11,11.2978,50.9996
1993-03-27 22:00:00 UTC,2449074.416667,28.5367,-95.3933,0010,9.23,7.75,12.0522,49.9814
1993-03-27 22:30:00 UTC,2449074.437500,28.5367,-95.3933,0010,8.52,8.52,12.0491,45.0000
1993-03-27 23:00:00 UTC,2449074.458333,28.5367,-95.3933,0010,7.20,7.72,10.5564,43.0039
1993-03-27 23:30:00 UTC,2449074.479167,28.5367,-95.3933,0010,6.59,7.58,10.0441,41.0035
1993-03-28 00:00:00 UTC,2449074.500000,28.5367,-95.3933,0010,6.03,7.72,9.7959,37.9930
1993-03-28 00:30:00 UTC,2449074.520833,28.5367,-95.3933,0010,6.09,7.01,9.2859,40.9828
1993-03-28 01:00:00 UTC,2449074.541667,28.5367,-95.3933,0010,5.51,5.51,7.7923,45.0000
1993-03-28 01:30:00 UTC,2449074.562500,28.5367,-95.3933,0010,5.33,3.33,6.2847,58.0043
1993-03-28 02:00:00 UTC,2449074.583333,28.5367,-95.3933,0010,5.41,1.15,5.5309,77.9993
1993-03-28 02:30:00 UTC,2449074.604167,28.5367,-95.3933,0010,4.76,-1.64,5.0346,109.0108
1993-03-28 03:00:00 UTC,2449074.625000,28.5367,-95.3933,0010,3.44,-1.53,3.7649,113.9779
1993-03-28 03:30:00 UTC,2449074.645833,28.5367,-95.3933,0010,-0.44,-2.47,2.5089,190.1006
1993-03-28 04:00:00 UTC,2449074.666667,28.5367,-95.3933,0010,-8.09,-5.06,9.5421,237.9755
1993-03-28 04:30:00 UTC,2449074.687500,28.5367,-95.3933,0010,-9.67,-6.77,11.8043,235.0040
1993-03-28 05:00:00 UTC,2449074.708333,28.5367,-95.3933,0010,-11.03,-4.23,11.8133,249.0182
1993-03-28 05:30:00 UTC,2449074.729167,28.5367,-95.3933,0010,-10.80,-0.19,10.8017,268.9921
1993-03-28 06:00:00 UTC,2449074.750000,28.5367,-95.3933,0010,-9.75,1.02,9.8032,275.9723
1993-03-28 06:30:00 UTC,2449074.770833,28.5367,-95.3933,0010,-8.08,1.86,8.2913,282.9636
1993-03-28 07:00:00 UTC,2449074.791667,28.5367,-95.3933,0010,-8.32,1.92,8.5387,282.9946
1993-03-28 07:30:00 UTC,2449074.812500,28.5367,-95.3933,0010,-8.73,3.18,9.2911,290.0147
1993-03-28 08:00:00 UTC,2449074.833333,28.5367,-95.3933,0010,-10.64,5.66,12.0518,298.0110
1993-03-28 08:30:00 UTC,2449074.854167,28.5367,-95.3933,0010,-9.11,7.12,11.5623,308.0097
1993-03-28 09:00:00 UTC,2449074.875000,28.5367,-95.3933,0010,-8.17,8.17,11.5541,315.0000
1993-03-28 09:30:00 UTC,2449074.895833,28.5367,-95.3933,0010,-9.08,9.73,13.3086,316.9791
1993-03-28 10:00:00 UTC,2449074.916667,28.5367,-95.3933,0010,-7.26,8.66,11.3006,320.0256
1993-03-28 10:30:00 UTC,2449074.937500,28.5367,-95.3933,0010,-5.01,11.25,12.3151,335.9950